User: anonymous   Login
Location: Brantford
(43.1330°N, 80.2670°W)
Time: 23:42:16
(UTC-05:00)
Language:

Tiros 1 despin weight - Orbit

View from above orbital plane
View from above orbital plane
View from above satellite
View from above satellite

Ground track
Ground track

The orbit data is extracted from the following two-line orbital elements,

1   115U 60002D   19316.24194007  .00000010  00000-0  28425-4 0  9998
2   115  48.1665 243.4609 0034707   6.2478 353.8861 14.83506283180570
Epoch (UTC): 12 November 2019 05:48:23
Eccentricity: 0.0034707
inclination: 48.1665°
perigee height: 594 km
apogee height: 642 km
right ascension of ascending node: 243.4609°
argument of perigee: 6.2478°
revolutions per day: 14.83506283
mean anomaly at epoch: 353.8861°
orbit number at epoch: 18057

The dashed part of the orbit path shows where the satellite is in the earth's shadow,  

DLR